Date,TemperatureHighF,TemperatureAvgF,TemperatureLowF,DewpointHighF,DewpointAvgF,DewpointLowF,HumidityHigh,HumidityAvg,HumidityLow,PressureMaxIn,PressureMinIn,WindSpeedMaxMPH,WindSpeedAvgMPH,GustSpeedMaxMPH,PrecipitationSumIn
2013-5-1,59,51,44,54,50,44,100,95,80,30.51,30.36,11,2,22,15.60
2013-5-2,62,55,44,56,50,44,100,86,71,30.51,30.37,9,1,22,15.60
2013-5-3,56,52,50,52,50,48,100,92,79,30.50,30.39,15,4,22,15.60
2013-5-4,58,52,45,56,50,45,100,94,82,30.40,30.30,11,3,22,15.60
2013-5-5,54,50,47,51,48,45,100,95,87,30.33,30.27,9,4,22,15.60
2013-5-6,57,51,48,55,51,48,100,99,94,30.31,30.20,10,3,22,15.60
2013-5-7,58,54,49,58,54,49,100,100,99,30.21,30.13,9,2,22,0.01
2013-5-8,63,59,56,63,58,56,100,99,95,30.13,30.01,12,3,22,1.50
2013-5-9,70,60,54,65,59,54,100,96,82,30.04,29.94,11,1,22,0.40
2013-5-10,79,65,57,68,62,57,100,91,65,30.04,29.92,11,2,22,61.44
2013-5-11,72,64,61,70,64,61,100,99,92,29.95,29.75,13,2,22,0.79
2013-5-12,72,62,53,64,54,42,100,76,48,30.00,29.71,26,5,26,0.06
2013-5-13,62,54,45,48,43,39,88,67,54,30.14,29.98,17,4,26,81.84
2013-5-14,64,54,42,52,45,40,96,74,45,30.18,30.08,14,2,26,81.84
2013-5-15,72,60,50,66,57,43,97,90,76,30.12,29.74,14,2,26,81.84
2013-5-16,75,68,61,67,62,56,100,83,57,29.89,29.73,10,1,26,0.01
2013-5-17,76,68,58,66,56,51,96,66,48,30.24,29.86,13,2,26,82.08
2013-5-18,64,59,56,62,58,55,100,97,88,30.35,30.22,7,1,26,0.02
2013-5-19,60,58,56,60,58,56,100,100,99,30.34,30.19,12,1,26,0.53
2013-5-20,77,67,59,75,66,59,100,99,94,30.21,30.01,8,1,26,0.02
2013-5-21,86,77,66,78,73,66,100,90,75,30.02,29.89,11,2,26,95.76
2013-5-22,80,72,65,77,71,65,100,97,87,29.97,29.87,6,1,26,95.76
2013-5-23,79,72,64,76,71,64,100,97,86,29.95,29.81,15,3,26,0.10
2013-5-24,70,59,47,69,59,47,100,99,96,30.00,29.74,17,3,26,0.18
2013-5-25,60,52,46,54,49,45,100,91,72,30.07,29.95,26,6,26,0.06
2013-5-26,70,60,49,53,49,46,91,68,48,30.24,30.02,18,6,26,103.92
2013-5-27,76,64,47,56,52,46,96,66,46,30.29,30.17,14,2,26,103.92
2013-5-28,72,61,56,63,59,54,100,92,65,30.27,30.16,9,0,26,0.38
2013-5-29,88,71,58,76,68,58,100,89,64,30.17,30.05,12,2,26,113.04
2013-5-30,93,82,72,77,74,71,97,79,52,30.18,30.10,11,3,26,113.04
2013-5-31,92,82,73,78,75,72,98,80,54,30.17,30.04,10,2,26,108.33